星链-35874(STARLINK-35874)

导读 | 豆包AI

STARLINK-35874是美国SpaceX星链计划中的一颗卫星,于2025年12月8日发射升空。星链计划旨在构建全球卫星互联网星座,为全球偏远及网络欠发达地区提供高速互联网接入服务。该卫星延续了星链卫星的设计思路,加入低轨星座,将进一步扩展星链全球网络覆盖范围,提升服务容量与稳定性。

基本信息
目录编号:
66962
目录名称:
STARLINK-35874
国际标识:
2025-288D
轨道中心:
EARTH
卫星名称:
星链-35874
卫星全名:
星链-35874(STARLINK-35874)
卫星状态:
在轨 (已飞行142 天)
发射日期:
2025-12-08 UTC
国别 :
美国 (US)
星等 :
--
轨道信息
数据来源 国际轨道数据
星历时间: 2026-04-28T23:40:21+0800
11小时前
查看轨道信息
半长轴: 6861.21km
偏心率: 0.0000392
轨道倾角: 43.000°
近地点辐角 296.472°
升交点赤经 101.715°
平近点角 63.609°
近地点: 482.804km
远地点: 483.342km
周期: 94.267分钟
每日圈数: 15.275723
详细信息
固有亮度:
5
最大亮度:
2.5
卫星平台:
Starlink V1.0
覆盖范围:
全球
运营商:
太空探索技术公司
运营商所在国:
美国
制造商(研发单位):
太空探索技术公司
制造商所在国:
美国
使用方式:
暂无
卫星简介
Starlink 计划是 SpaceX 推出的全球卫星互联网项目,通过发射低轨道卫星,为全球尤其是偏远地区提供高速、低延迟的互联网服务。自 2019 年起,Starlink 已部署数千颗卫星,旨在缩小全球数字鸿沟,推动互联网普及。该项目还为军事、航空等行业提供通信支持,带来广泛经济效益。
2D轨道图
3D轨道图
轨道高度分析图
轨道倾角分析图
轨道综合分析图
查看轨道综合分析图